timestamp,surface_pressure_avg,surface_temp_avg,battery_voltage,lat,long
2020-02-24 00:09:01+00:00,346.3546,-0.4,12.73,47.84626,-54.09684
2020-02-24 00:19:01+00:00,342.6330000000001,-0.5,12.65,47.84626,-54.09684
2020-02-24 00:29:01+00:00,343.7362,-0.51,12.65,47.84626,-54.09684
2020-02-24 00:39:01+00:00,345.6945,-0.5,12.65,47.84626,-54.09684
2020-02-24 00:49:01+00:00,339.4164,-0.5,12.65,47.84626,-54.09684
2020-02-24 00:59:01+00:00,332.3613,-0.51,12.65,47.84626,-54.09684
2020-02-24 01:09:01+00:00,333.9963,-0.5,12.65,47.84626,-54.09684
2020-02-24 01:19:01+00:00,331.8513,-0.5,12.65,47.84626,-54.09684
2020-02-24 01:29:01+00:00,323.0763,-0.5,12.65,47.84626,-54.09684
2020-02-24 01:39:01+00:00,322.8097,-0.5,12.65,47.84626,-54.09684
2020-02-24 01:49:01+00:00,323.143,-0.5,12.65,47.84626,-54.09684
2020-02-24 01:59:01+00:00,312.6396,-0.6,12.65,47.84626,-54.09684
2020-02-24 02:09:01+00:00,304.4614,-0.6,12.65,47.84626,-54.09684
2020-02-24 02:19:01+00:00,305.0997,-0.53,12.57,47.84626,-54.09684
2020-02-24 02:29:01+00:00,302.5264,-0.6,12.57,47.84626,-54.09684
2020-02-24 02:39:01+00:00,291.578,-0.6,12.57,47.84626,-54.09684
2020-02-24 02:49:01+00:00,285.3147,-0.56,12.57,47.84626,-54.09684
2020-02-24 02:59:01+00:00,283.9864,-0.5,12.57,47.84626,-54.09684
2020-02-24 03:09:01+00:00,278.0515,-0.51,12.57,47.84626,-54.09684
2020-02-24 03:19:01+00:00,267.9363,-0.6,12.57,47.84626,-54.09684
2020-02-24 03:29:01+00:00,260.868,-0.6,12.57,47.84626,-54.09684
2020-02-24 03:39:01+00:00,254.2248,-0.6,12.57,47.84626,-54.09684
2020-02-24 03:49:01+00:00,241.9714,-0.6,12.57,47.84626,-54.09684
2020-02-24 03:59:01+00:00,231.5831,-0.7,12.57,47.84626,-54.09684
2020-02-24 04:09:01+00:00,228.8731,-0.69,12.57,47.84626,-54.09684
2020-02-24 04:19:01+00:00,222.9847,-0.7,12.57,47.84626,-54.09684
2020-02-24 04:29:01+00:00,213.1381,-0.7,12.57,47.84626,-54.09684
2020-02-24 04:39:01+00:00,203.6881,-0.7,12.57,47.84626,-54.09684
2020-02-24 04:49:01+00:00,198.0715,-0.7,12.57,47.84626,-54.09684
2020-02-24 04:59:01+00:00,194.5615,-0.7,12.57,47.84626,-54.09684
2020-02-24 05:09:01+00:00,189.5598,-0.7,12.57,47.84626,-54.09684
2020-02-24 05:19:01+00:00,184.3898,-0.7,12.57,47.84626,-54.09684
2020-02-24 05:29:01+00:00,179.7848,-0.7,12.57,47.84626,-54.09684
2020-02-24 05:39:01+00:00,181.4598,-0.7,12.57,47.84626,-54.09684
2020-02-24 05:49:01+00:00,182.0765,-0.7,12.57,47.84626,-54.09684
2020-02-24 05:59:01+00:00,180.1615,-0.7,12.57,47.84626,-54.09684
2020-02-24 06:09:01+00:00,182.2348,-0.71,12.57,47.84626,-54.09684
2020-02-24 06:19:01+00:00,184.0264,-0.8,12.57,47.84626,-54.09684
2020-02-24 06:29:01+00:00,184.3315,-0.8,12.57,47.84626,-54.09684
2020-02-24 06:39:01+00:00,186.2681,-0.81,12.57,47.84626,-54.09684
2020-02-24 06:49:01+00:00,191.3548,-0.8,12.57,47.84626,-54.09684
2020-02-24 06:59:01+00:00,196.2498,-0.8,12.57,47.84626,-54.09684
2020-02-24 07:09:01+00:00,197.0464,-0.8,12.57,47.84626,-54.09684
2020-02-24 07:19:01+00:00,199.8481,-0.8,12.49,47.84626,-54.09684
2020-02-24 07:29:01+00:00,209.9381,-0.8,12.49,47.84626,-54.09684
2020-02-24 07:39:01+00:00,214.9998,-0.75,12.49,47.84626,-54.09684
2020-02-24 07:49:01+00:00,211.7697,-0.7,12.49,47.84626,-54.09684
2020-02-24 07:59:01+00:00,216.2015,-0.7,12.49,47.84626,-54.09684
2020-02-24 08:09:01+00:00,227.7031,-0.65,12.49,47.84626,-54.09684
2020-02-24 08:19:01+00:00,232.5397,-0.58,12.49,47.84626,-54.09684
2020-02-24 08:29:01+00:00,232.4681,-0.52,12.49,47.84626,-54.09684
2020-02-24 08:39:01+00:00,237.1147,-0.5,12.49,47.84626,-54.09684
2020-02-24 08:49:01+00:00,246.8181,-0.5,12.49,47.84626,-54.09684
2020-02-24 08:59:01+00:00,252.733,-0.5,12.49,47.84626,-54.09684
2020-02-24 09:09:01+00:00,256.6348,-0.5,12.49,47.84626,-54.09684
2020-02-24 09:19:01+00:00,263.7514,-0.5,12.49,47.84626,-54.09684
2020-02-24 09:29:01+00:00,272.3664,-0.48,12.49,47.84626,-54.09684
2020-02-24 09:39:01+00:00,277.2897,-0.44,12.49,47.84626,-54.09684
2020-02-24 09:49:01+00:00,284.0164,-0.46,12.49,47.84626,-54.09684
2020-02-24 09:59:01+00:00,293.9197,-0.44,12.49,47.84626,-54.09684
2020-02-24 10:09:01+00:00,302.213,-0.4,12.49,47.84626,-54.09684
2020-02-24 10:19:01+00:00,309.0963,-0.4,12.49,47.84626,-54.09684
2020-02-24 10:29:01+00:00,316.3147,-0.4,12.49,47.84626,-54.09684
2020-02-24 10:39:01+00:00,322.4096,-0.4,12.49,47.84626,-54.09684
2020-02-24 10:49:01+00:00,330.7713,-0.4,12.49,47.84626,-54.09684
2020-02-24 10:59:01+00:00,339.5363,-0.4,12.49,47.84626,-54.09684
2020-02-24 11:09:01+00:00,343.4197,-0.4,12.49,47.84626,-54.09684
2020-02-24 11:19:01+00:00,347.3563,-0.4,12.97,47.84626,-54.09684
2020-02-24 11:29:01+00:00,356.1229,-0.4,12.97,47.84626,-54.09684
2020-02-24 11:39:01+00:00,360.9613,-0.4,12.97,47.84626,-54.09684
2020-02-24 11:49:01+00:00,356.1663,-0.4,12.97,47.84626,-54.09684
2020-02-24 11:59:01+00:00,358.2463,-0.4,12.97,47.84626,-54.09684
2020-02-24 12:09:01+00:00,366.6995,-0.4,12.97,47.84626,-54.09684
2020-02-24 12:19:01+00:00,370.0361,-0.4,13.21,47.84626,-54.09684
2020-02-24 12:29:01+00:00,367.9629,-0.4,13.21,47.84626,-54.09684
2020-02-24 12:39:01+00:00,367.898,-0.4,13.21,47.84626,-54.09684
2020-02-24 12:49:01+00:00,367.9446,-0.4,13.21,47.84626,-54.09684
2020-02-24 12:59:01+00:00,361.7879,-0.4,13.21,47.84626,-54.09684
2020-02-24 13:09:01+00:00,360.4163,-0.4,13.21,47.84626,-54.09684
2020-02-24 13:19:01+00:00,361.4563,-0.4,13.37,47.84626,-54.09684
2020-02-24 13:29:01+00:00,357.6763,-0.4,13.37,47.84626,-54.09684
2020-02-24 13:39:01+00:00,352.5213,-0.4,13.37,47.84626,-54.09684
2020-02-24 13:49:01+00:00,351.3563,-0.4,13.37,47.84626,-54.09684
2020-02-24 13:59:01+00:00,351.0046,-0.4,13.37,47.84626,-54.09684
2020-02-24 14:09:01+00:00,347.9514,-0.4,13.37,47.84626,-54.09684
2020-02-24 14:19:01+00:00,343.4313,-0.4,13.6,47.84626,-54.09684
2020-02-24 14:29:01+00:00,341.4446,-0.4,13.6,47.84626,-54.09684
2020-02-24 14:39:01+00:00,336.3963,-0.4,13.6,47.84626,-54.09684
2020-02-24 14:49:01+00:00,330.3546,-0.4,13.6,47.84626,-54.09684
2020-02-24 14:59:01+00:00,320.4979,-0.4,13.6,47.84626,-54.09684
2020-02-24 15:09:01+00:00,310.4497,-0.4,13.6,47.84626,-54.09684
2020-02-24 15:19:01+00:00,304.8713,-0.4,13.92,47.84626,-54.09684
2020-02-24 15:29:01+00:00,295.8414,-0.4,13.92,47.84626,-54.09684
2020-02-24 15:39:01+00:00,285.0714,-0.4,13.92,47.84626,-54.09684
2020-02-24 15:49:01+00:00,276.4147,-0.4,13.92,47.84626,-54.09684
2020-02-24 15:59:01+00:00,269.7664,-0.4,13.92,47.84626,-54.09684
2020-02-24 16:09:01+00:00,261.1248,-0.4,13.92,47.84626,-54.09684
2020-02-24 16:19:01+00:00,254.0397,-0.4,14.24,47.84626,-54.09684
2020-02-24 16:29:01+00:00,249.7331,-0.4,14.24,47.84626,-54.09684
2020-02-24 16:39:01+00:00,236.6231,-0.4,14.24,47.84626,-54.09684
2020-02-24 16:49:01+00:00,224.6531,-0.4,14.24,47.84626,-54.09684
2020-02-24 16:59:01+00:00,220.0414,-0.4,14.24,47.84626,-54.09684
2020-02-24 17:09:01+00:00,214.8914,-0.4,14.24,47.84626,-54.09684
2020-02-24 17:19:01+00:00,205.8598,-0.4,14.24,47.84626,-54.09684
2020-02-24 17:29:01+00:00,196.8598,-0.4,14.24,47.84626,-54.09684
2020-02-24 17:39:01+00:00,191.3114,-0.4,14.24,47.84626,-54.09684
2020-02-24 17:49:01+00:00,190.2031,-0.4,14.24,47.84626,-54.09684
2020-02-24 17:59:01+00:00,187.6548,-0.4,14.24,47.84626,-54.09684
2020-02-24 18:09:01+00:00,181.0981,-0.4,14.24,47.84626,-54.09684
2020-02-24 18:19:01+00:00,181.9798,-0.41,14.24,47.84626,-54.09684
2020-02-24 18:29:01+00:00,184.7548,-0.4,14.24,47.84626,-54.09684
2020-02-24 18:39:01+00:00,183.1182,-0.4,14.24,47.84626,-54.09684
2020-02-24 18:49:01+00:00,183.8531,-0.42,14.24,47.84626,-54.09684
2020-02-24 18:59:01+00:00,184.7914,-0.42,14.24,47.84626,-54.09684
2020-02-24 19:09:01+00:00,185.0231,-0.42,14.24,47.84626,-54.09684
2020-02-24 19:19:01+00:00,186.2514,-0.43,14.16,47.84626,-54.09684
2020-02-24 19:29:01+00:00,193.1082,-0.47,14.16,47.84626,-54.09684
2020-02-24 19:39:01+00:00,199.9631,-0.43,14.16,47.84626,-54.09684
2020-02-24 19:49:01+00:00,199.9431,-0.4,14.16,47.84626,-54.09684
2020-02-24 19:59:01+00:00,201.0914,-0.4,14.16,47.84626,-54.09684
2020-02-24 20:09:01+00:00,210.8764,-0.4,14.16,47.84626,-54.09684
2020-02-24 20:19:01+00:00,220.5398,-0.4,14.0,47.84626,-54.09684
2020-02-24 20:29:01+00:00,221.9748,-0.4,14.0,47.84626,-54.09684
2020-02-24 20:39:01+00:00,224.2548,-0.4,14.0,47.84626,-54.09684
2020-02-24 20:49:01+00:00,232.7198,-0.4,14.0,47.84626,-54.09684
2020-02-24 20:59:01+00:00,234.2247,-0.38,14.0,47.84626,-54.09684
2020-02-24 21:09:01+00:00,233.6281,-0.37,14.0,47.84626,-54.09684
2020-02-24 21:19:01+00:00,240.5731,-0.37,13.6,47.84626,-54.09684
2020-02-24 21:29:01+00:00,249.1347,-0.37,13.6,47.84626,-54.09684
2020-02-24 21:39:01+00:00,251.4915,-0.37,13.6,47.84626,-54.09684
2020-02-24 21:49:01+00:00,252.7931,-0.38,13.6,47.84626,-54.09684
2020-02-24 21:59:01+00:00,258.7764,-0.4,13.6,47.84626,-54.09684
2020-02-24 22:09:01+00:00,270.373,-0.4,13.6,47.84626,-54.09684
2020-02-24 22:19:01+00:00,276.0197,-0.4,13.13,47.84626,-54.09684
2020-02-24 22:29:01+00:00,276.1464,-0.38,13.13,47.84626,-54.09684
2020-02-24 22:39:01+00:00,282.8931,-0.33,13.13,47.84626,-54.09684
2020-02-24 22:49:01+00:00,295.798,-0.31,13.13,47.84626,-54.09684
2020-02-24 22:59:01+00:00,300.743,-0.3,13.13,47.84626,-54.09684
2020-02-24 23:09:01+00:00,302.1113,-0.31,13.13,47.84626,-54.09684
2020-02-24 23:19:01+00:00,308.9564,-0.31,12.81,47.84626,-54.09684
2020-02-24 23:29:01+00:00,315.1063,-0.31,12.81,47.84626,-54.09684
2020-02-24 23:39:01+00:00,316.2014,-0.31,12.81,47.84626,-54.09684
2020-02-24 23:49:01+00:00,320.2629,-0.31,12.81,47.84626,-54.09684
2020-02-24 23:59:01+00:00,327.5364,-0.32,12.81,47.84626,-54.09684
